Regional Weather Roundup
Issued by NWS

Home | Current Version | Previous Version | Graphics & Text | Print | Product List | Glossary On
Versions: 1 2 3 4 5 6 7 8 9 10 11 12 13 14 15 16 17 18 19 20 21 22 23 24 25 26 27 28 29 30 31 32 33 34 35 36 37 38 39 40 41 42 43 44 45 46 47 48 49 50
000
ASUS43 KIND 261959
RWRIN

WEATHER ROUNDUP FOR INDIANA
NATIONAL WEATHER SERVICE INDIANAPOLIS IN
400 PM EDT SAT JUL 26 2014

NOTE: "FAIR" INDICATES FEW OR NO CLOUDS BELOW 12,000 FEET WITH NO
SIGNIFICANT WEATHER AND/OR OBSTRUCTIONS TO VISIBILITY.

* - STATION DOES NOT REPORT WEATHER SUCH AS PRECIPITATION OR FOG.

+ - STATION NOT QUALITY CONTROLLED BY THE NATIONAL WEATHER SERVICE.
    USE DATA WITH CAUTION...ESPECIALLY DEWPOINT AND RELATIVE
    HUMIDITY OBSERVATIONS.

INZ001>003-010>013-019-020-262100-
NORTHWEST INDIANA

CITY           SKY/WX    TMP DP  RH WIND       PRES   REMARKS
KNOX *+        PTSUNNY   78  68  71 SW7       29.81F
MONTICELLO +   PTSUNNY   78  72  81 SW8       29.83R
RENSSELAER +   CLOUDY    77  73  88 W6        29.86R
VALPARAISO     PTSUNNY   79  69  71 SW8       29.82F

$$

LMZ046-743>745-262100-
SOUTHERN LAKE MICHIGAN

STATION/POSITION TIME  TEMP WIND        PRES
                       AIR  DIR/SP/G
                 (UTC) (F)  (DEG/KT/KT) (MB)
MICHIGAN CITY    1900   73  310/  4/  5   N/A

$$

INZ004-005-014>016-021>024-262100-
NORTH CENTRAL INDIANA

CITY           SKY/WX    TMP DP  RH WIND       PRES   REMARKS
GOSHEN         CLOUDY    78  68  71 SW7       29.83F
SOUTH BEND     CLOUDY    77  67  71 S6        29.81F
WARSAW +       CLOUDY    73  72  94 W3        29.84S

$$

INZ006>009-017-018-025>027-262100-
NORTHEAST INDIANA

CITY           SKY/WX    TMP DP  RH WIND       PRES   REMARKS
ANGOLA *+      CLOUDY    75  70  83 CALM      29.84F
AUBURN +       PTSUNNY   73  70  88 CALM      29.85F FOG
FORT WAYNE     TSTM      73  71  93 W6        29.84R FOG

$$

INZ028-029-035-036-043>045-051>053-262100-
WEST CENTRAL INDIANA

CITY           SKY/WX    TMP DP  RH WIND       PRES   REMARKS
GREENCASTLE +  CLOUDY    79  73  83 S5        29.86F
LAFAYETTE      CLOUDY    78  72  81 SW5       29.84S
TERRE HAUTE    CLOUDY    85  74  69 S12       29.84F

$$

INZ030>032-037>040-046>048-054>057-064-065-262100-
CENTRAL INDIANA

CITY           SKY/WX    TMP DP  RH WIND       PRES   REMARKS
ANDERSON       CLOUDY    81  70  69 S12       29.87F
COLUMBUS       CLOUDY    82  73  74 SW8       29.88F
INDIANAPOLIS   CLOUDY    81  72  74 S12       29.85F
-EAGLE CREEK   PTSUNNY   81  70  69 SW9G18    29.84F
KOKOMO *+      CLOUDY    81  72  74 SW10      29.83F
MT COMFORT *+  PTSUNNY   81  79  94 SW9       29.87F
SHELBYVILLE    CLOUDY    82  72  71 SW9       29.87F
ZIONSVILLE +   CLOUDY    81  70  68 S9G16     29.83F

$$

INZ033-034-041-042-049-050-058-059-262100-
EAST CENTRAL INDIANA

CITY           SKY/WX    TMP DP  RH WIND       PRES   REMARKS
MUNCIE         PTSUNNY   81  70  69 SW13G23   29.84F

$$

INZ060-061-067>069-081>083-085>088-262100-
SOUTHWEST INDIANA

CITY           SKY/WX    TMP DP  RH WIND       PRES   REMARKS
EVANSVILLE     SUNNY     92  72  51 SW15      29.88F HX  99
HUNTINGBURG *+ MOSUNNY   91  73  55 W14       29.88F HX 100

$$

INZ062-063-066-070>080-084-089>092-262100-
SOUTH CENTRAL AND SOUTHEAST INDIANA

CITY           SKY/WX    TMP DP  RH WIND       PRES   REMARKS
BLOOMINGTON    CLOUDY    83  74  74 SW9       29.88F

$$




USA.gov is the U.S. government's official web portal to all federal, state and local government web resources and services.